Weather History for KPEQ - November, 2012

Change the Weather History Date:

Tuesday, November 20, 2012

  Actual Average Record
Temperature  
Mean Temperature 55 °F -  
Max Temperature 73 °F 68 °F 89 °F (2007)
Min Temperature 37 °F 34 °F 20 °F (1969)
Degree Days  
Heating Degree Days 10    
Growing Degree Days 5 (Base 50)    
Moisture  
Dew Point 35 °F    
Average Humidity 49    
Maximum Humidity 79    
Minimum Humidity 23    
Precipitation  
Precipitation 0.00 in - - ()
Sea Level Pressure  
Sea Level Pressure 30.23 in    
Wind  
Wind Speed 3 mph (WNW)    
Max Wind Speed 8 mph    
Max Gust Speed -    
Visibility 10 miles    
Events      
Averages and records for this station are not official NWS values.
T = Trace of Precipitation, MM = Missing Value Source: NWS Daily Summary

Daily Weather History Graph

Daily Weather History Graph

Search for Another Location

Airport or City:

Trip Planner

Search our weather history database for the weather conditions in past years. The results will help you decide how hot, cold, wet, or windy it might be!

Date:

Astronomy

Nov. 20, 2012 Rise Set
Actual Time 7:26 AM CST 5:52 PM CST
Civil Twilight 7:00 AM CST 6:18 PM CST
Nautical Twilight 6:30 AM CST 6:48 PM CST
Astronomical Twilight 6:01 AM CST 7:17 PM CST
Moon 1:15 PM CST (11/20) 12:12 AM CST (11/20)
Length of Visible Light 11h 18m
Length of Day
10h 26m
First Quarter, 51% of the Moon is Illuminated
Nov 20
First Quarter
Nov 28
Full
Dec 6
Last Quarter
Dec 13
New
Dec 19
First Quarter

Hourly Weather History & Observations

Time (CST) Temp. Windchill Dew Point Humidity Pressure Visibility Wind Dir Wind Speed Gust Speed Precip Events Conditions
12:15 AM 49.8 °F - 36.5 °F 60% 30.22 in 10.0 mi WSW 5.8 mph - N/A   Scattered Clouds
12:35 AM 49.8 °F - 36.9 °F 61% 30.22 in 10.0 mi NNW 4.6 mph - N/A   Scattered Clouds
12:55 AM 48.0 °F - 36.5 °F 64% 30.23 in 10.0 mi Calm Calm - N/A   Clear
1:15 AM 46.6 °F - 36.0 °F 67% 30.22 in 10.0 mi Calm Calm - N/A   Clear
1:35 AM 44.6 °F - 35.4 °F 70% 30.22 in 10.0 mi Calm Calm - N/A   Clear
1:55 AM 45.7 °F 44.4 °F 35.6 °F 68% 30.22 in 10.0 mi SSE 3.5 mph - N/A   Clear
2:15 AM 45.5 °F 44.2 °F 35.6 °F 68% 30.22 in 10.0 mi South 3.5 mph - N/A   Clear
2:35 AM 44.6 °F 43.1 °F 35.2 °F 70% 30.22 in 10.0 mi South 3.5 mph - N/A   Clear
6:15 AM 37.4 °F 32.1 °F 31.5 °F 79% 30.24 in 10.0 mi West 6.9 mph - N/A   Clear
6:35 AM 38.8 °F - 32.0 °F 76% 30.25 in 10.0 mi Calm Calm - N/A   Clear
6:55 AM 38.3 °F 35.9 °F 32.0 °F 78% 30.25 in 10.0 mi WNW 3.5 mph - N/A   Clear
7:15 AM 38.3 °F 34.8 °F 31.8 °F 77% 30.25 in 10.0 mi West 4.6 mph - N/A   Clear
7:35 AM 37.4 °F 32.8 °F 31.3 °F 79% 30.26 in 10.0 mi WSW 5.8 mph - N/A   Clear
7:55 AM 38.5 °F 36.1 °F 32.0 °F 78% 30.27 in 10.0 mi WSW 3.5 mph - N/A   Clear
8:15 AM 41.7 °F 38.0 °F 32.7 °F 70% 30.28 in 10.0 mi West 5.8 mph - N/A   Clear
8:35 AM 45.9 °F 43.6 °F 34.0 °F 63% 30.29 in 10.0 mi West 4.6 mph - N/A   Clear
8:55 AM 49.1 °F - 34.3 °F 57% 30.30 in 10.0 mi WSW 4.6 mph - N/A   Clear
9:15 AM 51.1 °F - 33.8 °F 52% 30.30 in 10.0 mi WNW 5.8 mph - N/A   Clear
9:35 AM 52.2 °F - 33.4 °F 49% 30.31 in 10.0 mi WNW 8.1 mph - N/A   Clear
9:55 AM 53.6 °F - 33.4 °F 46% 30.31 in 10.0 mi WNW 6.9 mph - N/A   Clear
10:35 AM 57.9 °F - 32.0 °F 37% 30.30 in 10.0 mi NW 8.1 mph - N/A   Clear
10:55 AM 59.9 °F - 32.0 °F 35% 30.30 in 10.0 mi NW 6.9 mph - N/A   Clear
11:15 AM 61.7 °F - 32.4 °F 33% 30.29 in 10.0 mi NW 5.8 mph - N/A   Clear
11:35 AM 63.0 °F - 32.5 °F 32% 30.29 in 10.0 mi NW 4.6 mph - N/A   Clear
12:35 PM 67.1 °F - 33.6 °F 29% 30.26 in 7.0 mi Calm Calm - N/A   Clear
1:15 PM 68.9 °F - 34.3 °F 28% 30.23 in 10.0 mi NE 3.5 mph - N/A   Clear
1:35 PM 70.0 °F - 34.7 °F 27% 30.22 in 10.0 mi Calm Calm - N/A   Clear
1:55 PM 70.9 °F - 34.0 °F 26% 30.21 in 10.0 mi North 3.5 mph - N/A   Clear
2:15 PM 71.8 °F - 34.2 °F 25% 30.19 in 10.0 mi Calm Calm - N/A   Clear
2:55 PM 73.8 °F - 33.6 °F 23% 30.18 in 10.0 mi North 3.5 mph - N/A   Clear
3:15 PM 72.9 °F - 34.3 °F 24% 30.18 in 10.0 mi Calm Calm - N/A   Clear
4:35 PM 73.6 °F - 36.5 °F 26% 30.17 in 10.0 mi Calm Calm - N/A   Clear
4:55 PM 73.8 °F - 36.7 °F 26% 30.17 in 10.0 mi ENE 3.5 mph - N/A   Clear
5:15 PM 73.0 °F - 36.5 °F 26% 30.17 in 10.0 mi Calm Calm - N/A   Clear
5:55 PM 68.2 °F - 36.0 °F 31% 30.17 in 10.0 mi East 3.5 mph - N/A   Clear
6:15 PM 65.3 °F - 35.6 °F 33% 30.18 in 10.0 mi East 4.6 mph - N/A   Clear
6:35 PM 63.9 °F - 35.4 °F 35% 30.18 in 10.0 mi ESE 3.5 mph - N/A   Clear
6:55 PM 61.7 °F - 35.2 °F 37% 30.19 in 10.0 mi Calm Calm - N/A   Clear
7:15 PM 61.7 °F - 35.2 °F 37% 30.19 in 10.0 mi Calm Calm - N/A   Clear
7:35 PM 61.3 °F - 35.1 °F 37% 30.19 in 10.0 mi East 3.5 mph - N/A   Clear
7:55 PM 58.8 °F - 35.6 °F 42% 30.19 in 10.0 mi East 4.6 mph - N/A   Clear
8:15 PM 58.3 °F - 35.6 °F 43% 30.20 in 10.0 mi ESE 4.6 mph - N/A   Clear
8:35 PM 57.4 °F - 35.6 °F 44% 30.20 in 10.0 mi ESE 4.6 mph - N/A   Clear
8:55 PM 55.6 °F - 35.4 °F 47% 30.20 in 10.0 mi Calm Calm - N/A   Clear
9:15 PM 54.5 °F - 35.4 °F 49% 30.21 in 10.0 mi Calm Calm - N/A   Clear
9:35 PM 54.1 °F - 35.6 °F 50% 30.20 in 10.0 mi Calm Calm - N/A   Clear
9:55 PM 53.6 °F - 34.7 °F 49% 30.22 in 10.0 mi Calm Calm - N/A   Clear
10:15 PM 52.9 °F - 35.4 °F 52% 30.22 in 10.0 mi SSW 4.6 mph - N/A   Clear
10:35 PM 54.0 °F - 36.1 °F 51% 30.22 in 10.0 mi Calm Calm - N/A   Clear
10:55 PM 53.4 °F - 35.6 °F 51% 30.22 in 10.0 mi Calm Calm - N/A   Clear
11:15 PM 51.8 °F - 35.2 °F 53% 30.21 in 10.0 mi Calm Calm - N/A   Clear
11:35 PM 52.7 °F - 35.6 °F 52% 30.21 in 10.0 mi Calm Calm - N/A   Clear
11:55 PM 52.0 °F - 36.1 °F 55% 30.21 in 10.0 mi NNE 4.6 mph - N/A   Clear